Miscellaneous Local Product
Issued by NWS North Platte, NE

Home | Current Version | Previous Version | Text Only | Print | Product List | Glossary On
Versions: 1 2 3 4 5 6 7 8 9 10 11 12 13 14 15 16 17 18 19 20 21 22 23 24 25 26 27 28 29 30 31 32 33 34 35 36 37 38 39 40 41 42 43 44 45 46 47 48 49 50
000
AXUS43 KLBF 232210
MISLBF


WESTERN AND NORTH CENTRAL NEBRASKA HOURLY WEATHER ROUNDUP
NATIONAL WEATHER SERVICE NORTH PLATTE NE
500 PM CDT WED JUL 23 2014

***STATIONS NOT REPORTING VARIABLES SUCH AS SKY/WEATHER OR
PRESSURE ARE PROVIDED BY THE NEBRASKA DEPARTMENT OF
ROADS...RAWS...AND APRS NETWORKS...AND ARE NOT UNDER
NATIONAL WEATHER SERVICE QUALITY CONTROL***

...OBSERVATIONS IN AND NEAR THE EASTERN PANHANDLE OF NEBRASKA...

CITY           SKY/WX    TMP DP  RH WIND       PRES   REMARKS
PINE RIDGE     SUNNY     86  67  52 E14       30.15F
CHADRON        SUNNY     94  59  31 S15G26    30.11F HX  93
ALLIANCE       SUNNY     93  62  35 S18G26    30.17F HX  93
SIDNEY         SUNNY     92  62  36 S23G31    30.21F HX  92
WHITECLAY        N/A     89  65  44 E7          N/A  HX  90
RUSHVILLE        N/A    100  53  20 S18         N/A  HX  98
GORDON           N/A     95  68  40 E18         N/A  HX  99
CRESCENT LAKE    N/A     91  62  38 S9G18       N/A  HX  91
LISCO            N/A     94  58  29 SE17        N/A  HX  93
BIG SPRINGS      N/A     88  67  50 S12         N/A  HX  91
$$

...OBSERVATIONS IN NORTH CENTRAL NEBRASKA...

CITY           SKY/WX    TMP DP  RH WIND       PRES   REMARKS
VALENTINE      SUNNY     87  59  38 SE16      30.18F
THEDFORD       SUNNY     86  59  40 SE12      30.21F
AINSWORTH      SUNNY     83  56  38 SE12G17   30.20F
O`NEILL        SUNNY     83  53  35 SE9       30.21F
ORD            SUNNY     82  57  42 E9        30.18F
BROKEN BOW     SUNNY     83  60  45 SE9       30.20F
BROWNLEE         N/A     91  59  33 SE13        N/A  HX  90
SPRINGVIEW       N/A     84  58  41 SE6G15      N/A
DUNNING          N/A     83  57  41 E9          N/A
ROSE             N/A     87  62  42 E10         N/A
NEWPORT          N/A     82  61  48 E13         N/A
SARGENT          N/A     82  60  46 NE3         N/A
COMSTOCK         N/A     87  65  48 E9          N/A
CHAMBERS         N/A     85  58  40 E7          N/A
$$

...OBSERVATIONS IN SOUTHWEST NEBRASKA AND FAR NORTHEAST COLORADO...

CITY           SKY/WX    TMP DP  RH WIND       PRES   REMARKS
WRAY             N/A     96  56  26 S15G25    30.19F HX  95
HOLYOKE        FAIR      95  63  34 S18G24    30.18F HX  96
IMPERIAL       SUNNY     94  58  29 S12       30.16F HX  93
OGALLALA       SUNNY     91  57  31 S10G17    30.18S HX  90
NORTH PLATTE   SUNNY     82  63  52 E14       30.18F
MCCOOK         SUNNY     85  65  51 SE10      30.17F
LEXINGTON      SUNNY     83  61  48 SE9       30.19F
PAXTON           N/A     84  71  65 E6          N/A
SUTHERLAND       N/A     85  72  65 E13         N/A  HX  90
BRADY            N/A     80  64  58 N5          N/A
GOTHENBURG       N/A     78  59  52 E8          N/A
CALLAWAY         N/A     86  70  59 E7          N/A  HX  91
$$

...NORTH PLATTE AREA...

CITY           SKY/WX    TMP DP  RH WIND       PRES   REMARKS
AIRPORT        SUNNY     82  63  52 E14       30.18F
$$

...SOME WEATHER OBSERVATIONS FROM AROUND THE REGION...

CITY           SKY/WX    TMP DP  RH WIND       PRES   REMARKS
DENVER         PTSUNNY   83  59  44 W13       30.28S
LARAMIE        PTSUNNY   80  51  36 S20       30.38R
CHEYENNE       SUNNY     81  61  50 S21G33    30.32F
SCOTTSBLUFF    SUNNY     90  63  40 S14       30.17F HX  91
RAPID CITY     SUNNY     84  64  50 SE17      30.14F
PIERRE         MOSUNNY   87  55  33 E18G25    30.12F
WINNER         FAIR      88  51  28 SE14G23   30.18F
SIOUX FALLS    MOSUNNY   80  58  46 E10       30.21F
OMAHA          MOSUNNY   86  58  38 NE10      30.16F
GRAND ISLAND   SUNNY     83  60  45 E13       30.17F
KANSAS CITY    PTSUNNY   86  65  49 N13       30.12F
WICHITA        MOSUNNY   90  67  46 NE9       30.09F HX  93
HAYS           MOSUNNY   90  63  40 SE13      30.15R HX  90
LIBERAL        PTSUNNY   97  61  30 E14       30.18F HX  97
GOODLAND       SUNNY     90  60  36 S16G24    30.21F
$$



USA.gov is the U.S. government's official web portal to all federal, state and local government web resources and services.